Starlink 32250

operational
NORAD ID: 60425 Int'l Des: 2024-144 Owner: SPXS Country: US Constellation: starlink
LEOCIRCULAR

关于 Starlink 32250

正在加载描述...

实时位置

正在加载3D地球...

即将过境

高度历史

Altitude vs Time

uPlot chart will show altitude changes over time

两行轨道根数

1 60425U 24144A 25304.81200442 -.00006127 00000-0 -19526-3 0 9991
2 60425 53.1611 96.0261 0001529 77.9314 282.1858 15.30139617 68675
Epoch: Oct 31, 2025 • Age: 45 hours

当前状态

高度 494.4 km
速度 7.62 km/s
星下点 -51.73°S, 48.34°E
发射日期 Aug 12, 2024
运行时间 1.2 years
类型 internet

技术详情

分类 Payload
质量 730.00 kg
干质量 700.00 kg
总质量 730.00 kg
长度 0.30 m
直径 4.10 m
跨度 29.00 m
形状 Box + pan
制造商 SPXS
平台类型 Starlink V2M
阶段状态 In Orbit
所有者/国家 SPXS/US

大型星座

Loading constellations...